Location: Bannatyne
(13.0833°N, 59.5333°W)
Time: 04:53:30
(UTC+00:00)

A-11 Canister half - Visible Passes

Search period start: 29 January 2020 00:00
Search period end: 08 February 2020 00:00
Orbit: 1517 x 1683 km, 47.2° (Epoch: 28 January)

Date Brightness Start Highest point End Pass type
(mag) Time Alt. Az. Time Alt. Az. Time Alt. Az.
29 Jan 9.6 00:59:21 10° WSW 01:07:05 49° W 01:07:05 49° W visible
29 Jan 11.0 07:34:45 10° NNE 07:35:45 10° NNE 07:36:45 10° NE visible
29 Jan 9.8 09:33:38 10° NNW 09:42:28 47° NE 09:51:29 10° ESE visible
29 Jan 9.9 22:32:52 10° S 22:41:15 31° SE 22:47:48 15° ENE visible
30 Jan 9.2 00:36:17 10° SW 00:45:55 59° NW 00:46:03 59° NW visible
30 Jan 9.8 09:10:50 10° NNW 09:19:32 44° NE 09:28:22 10° ESE visible
30 Jan 10.0 22:10:13 10° S 22:18:20 28° SE 22:26:12 10° ENE visible
31 Jan 9.2 00:13:14 10° SW 00:23:00 64° NW 00:25:02 54° N visible
31 Jan 9.9 08:48:37 12° NNW 08:56:35 40° NE 09:05:15 10° ESE visible
31 Jan 9.2 23:50:13 10° SW 00:00:04 70° NW 00:04:02 40° NNE visible
01 Feb 11.1 02:00:38 10° WNW 02:02:17 13° WNW 02:02:17 13° WNW visible
01 Feb 10.0 08:27:20 17° NNW 08:33:38 37° NE 08:42:06 10° ESE visible
01 Feb 9.1 23:27:12 10° SW 23:37:08 75° NW 23:43:01 28° NNE visible
02 Feb 10.9 01:37:03 10° WNW 01:41:16 17° NW 01:41:16 17° NW visible
02 Feb 10.0 08:06:08 23° N 08:10:41 34° NE 08:18:56 10° ESE visible
02 Feb 9.1 23:04:13 10° SW 23:14:13 81° NW 23:21:59 18° NE visible
03 Feb 10.7 01:13:33 10° WNW 01:19:57 19° NW 01:20:14 19° NW visible
03 Feb 10.1 07:44:58 27° NNE 07:47:44 32° NE 07:55:44 10° ESE visible
03 Feb 9.1 09:43:38 10° NW 09:52:42 60° SW 10:02:00 10° SSE visible
03 Feb 9.1 22:41:16 10° SW 22:51:17 87° NW 23:00:56 10° NE visible
04 Feb 10.6 00:50:06 10° W 00:56:55 21° NW 00:59:11 19° NNW visible
04 Feb 10.1 07:23:51 29° NNE 07:24:45 29° NE 07:32:31 10° E visible
04 Feb 9.0 09:22:06 16° NW 09:29:48 65° SW 09:39:10 10° SSE visible
04 Feb 9.2 22:18:19 10° SW 22:28:22 87° SE 22:38:04 10° NE visible
05 Feb 10.6 00:26:41 10° W 00:33:53 23° NW 00:38:05 17° N visible
05 Feb 10.3 07:02:47 26° NE 07:02:47 26° NE 07:09:17 10° E visible
05 Feb 8.9 09:01:02 25° NW 09:06:55 71° SW 09:16:19 10° SSE visible
06 Feb 10.6 00:03:19 10° W 00:10:52 25° NW 00:16:56 14° N visible
06 Feb 10.6 06:41:45 21° ENE 06:41:45 21° ENE 06:46:00 10° E visible
06 Feb 8.8 08:40:00 39° NW 08:44:02 77° SW 08:53:28 10° SE visible
06 Feb 10.5 23:39:58 10° W 23:47:51 27° NW 23:55:35 10° NNE visible
07 Feb 11.0 06:20:44 15° ENE 06:20:44 15° ENE 06:22:42 10° E visible
07 Feb 8.8 08:18:59 59° NW 08:21:09 83° SW 08:30:35 10° SE visible
07 Feb 10.5 23:16:39 10° W 23:24:51 29° NW 23:32:51 10° NNE visible
